Location: Gajan
(43.0218°N, 1.1244°E)
Time: 22:01:50
(UTC+00:00)

N. Korean satellite - Pass Details

Date: 27 September 2021
Orbit: 450 x 494 km, 97.3° (Epoch: 28 October)

Event Time Altitude Azimuth Distance (km) Brightness Sun altitude
Rises 04:08:47 0° 33° (NNE) 2,540 11.0 -18.8°
Reaches altitude 10° 04:11:49 10° 63° (ENE) 1,665 10.5 -18.3°
Maximum altitude 04:13:32 13° 91° (E) 1,491 10.1 -18.0°
Drops below altitude 10° 04:15:15 10° 120° (ESE) 1,670 9.9 -17.7°
Sets 04:18:18 0° 149° (SSE) 2,553 10.4 -17.1°
